Location: Toronto
(43.6672°N, 79.4170°W)
Time: 14:44:24
(UTC-04:00)

Daily predictions for brighter satellites

Satellite Brightness Start Highest point End
(mag) Time Altitude Azimuth Time Altitude Azimuth Time Altitude Azimuth
Meteor 2-16 Rocket 4.4 20:23:47 10° S 20:29:47 68° E 20:35:49 10° NNE
OTV 4 2.4 20:28:47 10° WSW 20:31:02 20° SSW 20:33:17 10° SE
FENGYUN 3A 3.7 20:32:09 10° SSE 20:37:27 72° ENE 20:42:48 10° N
CZ-2D R/B 3.3 20:34:28 10° SSE 20:38:17 64° ENE 20:42:09 10° N
Cosmos 1656 4.2 20:35:17 10° S 20:40:21 36° ESE 20:45:23 10° NE
Cosmos 2227 Rocket 2.2 20:37:03 10° NNW 20:42:46 89° ENE 20:48:25 10° SSE
Tiangong 1 1.0 20:41:29 10° W 20:44:35 77° S 20:47:24 12° E
Cosmos 1821 Rocket 4.2 20:38:44 10° SSW 20:44:50 77° W 20:50:57 10° N
Helios 1A 4.4 20:40:55 10° S 20:44:50 40° W 20:48:49 10° NNW
Cosmos 1605 Rocket 4.0 20:41:39 10° S 20:47:55 67° E 20:54:08 10° NNE
Cosmos 1500 4.1 20:47:55 10° SSE 20:51:08 27° E 20:54:22 10° NNE
EP 1 4.4 20:49:38 10° SW 20:52:12 74° NW 20:54:53 10° NNE
Lacrosse 5 2.4 20:47:44 10° NW 20:52:39 48° NE 20:56:52 14° ESE
ERS-1 Rocket 3.6 20:48:26 10° SE 20:53:04 38° ENE 20:57:41 10° N
Cosmos 1939 Rocket 4.0 20:49:57 12° ESE 20:53:07 27° ENE 20:56:39 10° N
Cosmos 1461 3.5 20:51:20 10° NW 20:55:18 51° WSW 20:59:07 10° SSE
Cosmos 1346 Rocket 3.5 20:52:35 10° NNW 20:56:28 57° W 21:00:23 10° S
DELTA 2 R/B (1) 4.1 20:51:52 10° W 20:57:13 49° SSW 21:01:40 15° ESE
Cosmos 2082 3.9 20:52:11 10° NNW 20:57:48 76° WSW 21:03:24 10° SSE
Cosmos 2297 Rocket 2.2 20:52:21 10° NNW 20:58:03 85° ENE 21:03:43 10° SSE
Cosmos 1340 4.3 20:57:56 10° NNE 21:00:35 18° ENE 21:01:55 15° E
Cosmos 1898 Rocket 3.7 20:58:02 10° NNW 21:03:17 56° ENE 21:07:49 13° SE
SPOT 5 4.2 21:00:32 15° ESE 21:03:24 24° ENE 21:07:12 10° NNE
YAOGAN 11 4.4 21:00:22 10° SSE 21:04:41 52° ENE 21:09:01 10° N
H-2A R/B 3.2 21:03:38 16° ESE 21:05:42 24° ENE 21:09:03 10° NNE
Cosmos 1626 Rocket 3.5 21:03:14 10° N 21:07:41 84° E 21:12:02 10° S
Cosmos 1515 3.6 21:09:23 10° N 21:13:15 71° E 21:16:39 13° SSE
Cosmos 1455 Rocket 4.1 21:09:09 10° SSW 21:13:20 47° WNW 21:17:34 10° N
Cosmos 1602 Rocket 3.7 21:12:30 10° N 21:16:59 77° W 21:21:24 10° S
RESURS DK-1 2.7 21:14:18 10° NNW 21:18:20 48° ENE 21:20:28 24° ESE
Cosmos 468 Rocket 4.0 21:15:01 10° S 21:20:01 57° ESE 21:25:03 10° NNE
Cosmos 2084 3.3 21:17:14 10° NW 21:21:19 86° SW 21:23:56 23° SE
deb Chang Zheng 4 4.4 21:17:32 10° NE 21:21:29 30° E 21:23:15 23° SE
USA 215 4.4 21:16:02 10° E 21:21:48 35° NNE 21:27:35 10° NW
CZ-4 DEB 2.6 21:22:56 21° SSE 21:24:52 88° E 21:28:03 10° NNW
SJ-11-01 4.2 21:20:47 13° SSE 21:25:00 82° ENE 21:29:43 10° NNW
Cosmos 841 Rocket 4.3 21:24:57 22° SE 21:26:55 28° E 21:31:19 10° NE
Cosmos 1743 3.1 21:26:39 25° SSE 21:28:28 42° E 21:32:11 10° NNE
Cosmos 1459 Rocket 4.0 21:22:55 10° SSE 21:28:47 56° E 21:34:44 10° NNE
Cosmos 1814 Rocket 4.0 21:25:14 10° S 21:30:28 60° ESE 21:35:42 10° NNE
Cosmos 1066 Rocket 4.2 21:27:25 10° N 21:33:07 86° E 21:38:16 13° S
SL-24 R/B - RUBIN 2 4.4 21:27:18 10° SW 21:33:13 87° WNW 21:39:50 10° NE
Terra 4.0 21:32:40 10° ENE 21:33:17 10° ENE 21:33:54 10° NE
Cosmos 1697 Rocket 2.6 21:30:04 10° SSW 21:35:42 76° ESE 21:41:21 10° NNE
OAO 2 Rocket 4.3 21:32:40 10° WSW 21:37:04 31° S 21:38:28 27° SSE
SL-16 R/B 3.8 21:46:17 17° ENE 21:46:17 17° ENE 21:48:23 10° NE
Cosmos 2058 Rocket 3.8 21:45:01 32° E 21:45:07 32° E 21:49:09 10° NNE
ASTEX 1 3.6 21:46:20 10° NNE 21:51:13 50° E 21:52:42 37° SE
Cosmos 1606 Rocket 3.5 21:50:20 37° SSE 21:51:50 60° E 21:56:13 10° NNE
ARGOS 3.8 21:53:32 33° ESE 21:54:56 39° ENE 21:59:55 10° N
Cosmos 1842 3.7 21:51:34 10° N 21:55:11 41° ENE 21:55:11 41° ENE
Cosmos 1980 Rocket 2.1 21:53:06 10° SSW 21:58:44 71° ESE 22:04:26 10° NNE
Lacrosse 5 rocket 3.4 21:58:08 10° W 22:00:18 15° WSW 22:01:42 13° SSW
Cosmos 1802 Rocket 4.0 21:56:26 10° S 22:02:50 87° E 22:09:19 10° N
Envisat 3.3 22:00:26 23° S 22:03:37 64° W 22:08:41 10° NNW
SL-08 R/B 4.4 22:00:46 27° SSE 22:04:12 64° E 22:10:17 10° NNE
Cosmos 1937 Rocket 4.0 22:01:22 10° NNW 22:06:33 58° WSW 22:09:16 28° S
MetOp-B 4.0 22:07:39 42° SSE 22:09:33 81° ENE 22:14:57 10° NNW
Cosmos 1726 Rocket 3.4 22:14:23 56° S 22:15:18 90° WSW 22:19:44 10° N
Cosmos 1666 3.2 22:16:27 49° NNE 22:16:27 49° NNE 22:19:22 10° NNE
Cosmos 2016 Rocket 3.9 22:11:10 19° S 22:15:44 88° W 22:21:59 10° N
H-2A R/B 2.9 22:17:51 32° ENE 22:17:51 32° ENE 22:22:08 10° N
Cosmos 990 Rocket 4.3 22:13:53 10° NNW 22:19:04 61° WSW 22:20:54 38° SSW
Meteor 1-15 Rocket 4.3 22:19:19 49° SSE 22:20:42 63° E 22:26:30 10° NNE
Tiangong 1 3.2 22:17:59 10° W 22:19:22 22° WSW 22:19:22 22° WSW
CZ-4B R/B 3.9 22:17:29 10° NNE 22:21:05 40° ENE 22:21:05 40° ENE
Cosmos 2263 Rocket 3.0 22:19:51 10° N 22:24:54 34° NE 22:25:29 33° ENE
Cosmos 2322 Rocket 2.6 22:32:37 45° ENE 22:32:37 45° ENE 22:36:58 10° NE
SL-08 RB Rocket 3.8 22:33:41 69° NE 22:33:41 69° NE 22:38:06 10° N
Cosmos 2098 Rocket 4.0 22:29:39 28° S 22:33:30 86° W 22:39:16 10° N
Cosmos 836 Rocket 4.4 22:34:20 71° SSE 22:34:52 80° ESE 22:40:12 10° NNE
BREEZE-M DEB (TANK) 4.4 22:30:33 10° WNW 22:34:57 81° SSW 22:39:15 39° SE
Lacrosse 5 2.8 22:30:55 10° WNW 22:35:30 35° SW 22:36:04 34° SW
Cosmos 1340 4.1 22:33:01 10° NNW 22:36:24 31° W 22:36:49 30° WSW
SPOT 1/Viking Rocket 3.5 22:36:08 68° S 22:36:49 85° WSW 22:42:04 10° NNW
YAOGAN 6 3.7 22:38:50 42° WNW 22:38:50 42° WNW 22:42:00 10° NNW
SPOT 5 3.8 22:39:47 34° SW 22:41:14 44° W 22:45:51 10° NNW
H-2A R/B 3.5 22:40:46 27° WSW 22:41:36 29° W 22:45:16 10° NW
Meteor 2-9 Rocket 4.2 22:41:32 49° SSW 22:43:01 76° W 22:48:27 10° N
Cosmos 2360 4.3 22:38:33 16° SSW 22:43:10 74° WNW 22:48:56 10° NNE
Cosmos 1864 Rocket 4.4 22:41:44 44° SSW 22:43:50 82° W 22:50:00 10° N
Cosmos 1763 Rocket 4.2 22:41:43 14° SW 22:45:57 51° WNW 22:50:55 10° N
Tsikada Rocket 4.1 22:43:14 10° NNW 22:49:39 73° W 22:51:22 50° SSW
Cosmos 1125 Rocket 3.4 22:46:24 10° NNW 22:51:36 77° WSW 22:51:36 77° WSW
Cosmos 405 Rocket 4.3 22:48:04 10° N 22:50:05 30° N 22:50:05 30° N
Cosmos 2228 3.8 22:54:37 50° NNW 22:54:37 50° NNW 22:57:59 10° N
Landsat 7 4.1 22:55:38 62° N 22:55:38 62° N 22:59:39 10° N
CZ-4C R/B 4.5 23:00:05 45° N 23:00:05 45° N 23:03:12 10° N
Cosmos 2346 Rocket 4.3 22:56:41 10° N 23:02:56 79° E 23:03:02 79° E
USA 215 3.2 23:03:14 64° E 23:04:15 76° NE 23:10:48 10° NW
Terra 2.5 23:11:26 50° N 23:11:26 50° N 23:14:58 10° N
CZ-4 R/B 4.4 23:07:15 10° N 23:10:58 53° N 23:10:58 53° N
Cosmos 540 Rocket 4.2 23:25:34 49° N 23:25:34 49° N 23:29:28 10° NNE
SL-16 R/B 2.5 23:28:05 62° NW 23:28:05 62° NW 23:33:37 10° NNE
Cosmos 1844 Rocket 4.1 23:32:24 10° N 23:36:28 29° NE 23:36:28 29° NE
BREEZE-M DEB (TANK) 4.2 23:32:44 10° W 23:38:01 38° W 23:38:01 38° W
Cosmos 2360 Rocket 3.5 23:45:50 31° NE 23:45:50 31° NE 23:48:45 10° NNE
Cosmos 1980 Rocket 4.5 23:39:04 10° W 23:43:20 21° NW 23:47:37 10° N
